| time (UTC) | temp F | wind direction | speed knots | gust knots | rain 1hr in | rain 24hr in | rain mn in | humidity % | barometer mb |
| 20260903001019 | 84 | 225 | 0.0 | 2.6 | 0.00 | 0.00 | 0.00 | 73 | 1014.7 |
| 20260903000021 | 85 | 225 | 0.0 | 2.6 | 0.00 | 0.00 | 0.00 | 71 | 1014.8 |
| 20260902235011 | 85 | 203 | 1.7 | 2.6 | 0.00 | 0.00 | 0.00 | 70 | 1014.8 |
| 20260902234012 | 86 | 225 | 0.9 | 2.6 | 0.00 | 0.00 | 0.00 | 68 | 1014.7 |
| 20260902233013 | 87 | 225 | 1.7 | 5.2 | 0.00 | 0.00 | 0.00 | 67 | 1014.9 |
| 20260902232013 | 88 | 225 | 2.6 | 5.2 | 0.00 | 0.00 | 0.00 | 66 | 1014.6 |
| 20260902231016 | 89 | 248 | 1.7 | 5.2 | 0.00 | 0.00 | 0.00 | 65 | 1014.8 |
| 20260902222019 | 93 | 225 | 1.7 | 7.0 | 0.00 | 0.00 | 0.00 | 57 | 1014.8 |
| 20260902221019 | 93 | 225 | 2.6 | 7.8 | 0.00 | 0.00 | 0.00 | 55 | 1014.8 |
| 20260902220020 | 94 | 225 | 4.3 | 7.8 | 0.00 | 0.00 | 0.00 | 53 | 1014.9 |
| 20260902215021 | 95 | 248 | 2.6 | 11.3 | 0.00 | 0.00 | 0.00 | 53 | 1014.8 |
| 20260902214018 | 96 | 248 | 2.6 | 7.8 | 0.00 | 0.00 | 0.00 | 52 | 1014.8 |
| 20260902212011 | 97 | 248 | 2.6 | 8.7 | 0.00 | 0.00 | 0.00 | 50 | 1014.9 |
| 20260902205012 | 96 | 225 | 4.3 | 8.7 | 0.00 | 0.00 | 0.00 | 51 | 1015.1 |
| 20260902204011 | 97 | 248 | 6.1 | 10.4 | 0.00 | 0.00 | 0.00 | 47 | 1015.2 |
| 20260902203013 | 97 | 248 | 1.7 | 8.7 | 0.00 | 0.00 | 0.00 | 48 | 1015.3 |
| 20260902193019 | 97 | 248 | 2.6 | 10.4 | 0.00 | 0.00 | 0.00 | 47 | 1016.0 |
| 20260902192021 | 96 | 248 | 1.7 | 11.3 | 0.00 | 0.00 | 0.00 | 51 | 1016.0 |
| 20260902190020 | 97 | 203 | 2.6 | 10.4 | 0.00 | 0.00 | 0.00 | 51 | 1016.0 |
| 20260902185012 | 95 | 248 | 1.7 | 8.7 | 0.00 | 0.00 | 0.00 | 55 | 1016.1 |
| 20260902184015 | 97 | 248 | 2.6 | 11.3 | 0.00 | 0.00 | 0.00 | 50 | 1016.1 |
| 20260902180018 | 101 | 225 | 4.3 | 7.8 | 0.00 | 0.00 | 0.00 | 46 | 1016.6 |
| 20260902175020 | 101 | 225 | 1.7 | 7.8 | 0.00 | 0.00 | 0.00 | 48 | 1016.6 |
| 20260902174010 | 102 | 248 | 2.6 | 10.4 | 0.00 | 0.00 | 0.00 | 45 | 1016.8 |
| 20260902171013 | 103 | 248 | 1.7 | 6.1 | 0.00 | 0.00 | 0.00 | 45 | 1017.2 |
| 20260902163014 | 98 | 225 | 2.6 | 8.7 | 0.00 | 0.00 | 0.00 | 52 | 1017.4 |
| 20260902162014 | 97 | 248 | 2.6 | 8.7 | 0.00 | 0.00 | 0.00 | 53 | 1017.3 |
| 20260902161016 | 97 | 270 | 0.9 | 4.3 | 0.00 | 0.00 | 0.00 | 58 | 1017.4 |
| 20260902155018 | 94 | 248 | 0.0 | 5.2 | 0.00 | 0.00 | 0.00 | 59 | 1017.4 |
| 20260902153016 | 96 | 225 | 0.9 | 4.3 | 0.00 | 0.00 | 0.00 | 55 | 1017.5 |
| 20260902152017 | 94 | 270 | 0.0 | 5.2 | 0.00 | 0.00 | 0.00 | 63 | 1017.3 |
| 20260902150018 | 93 | 270 | 0.9 | 2.6 | 0.00 | 0.00 | 0.00 | 64 | 1017.3 |
| 20260902145020 | 92 | 248 | 0.9 | 6.1 | 0.00 | 0.00 | 0.00 | 60 | 1017.5 |
| 20260902144020 | 92 | 225 | 1.7 | 2.6 | 0.00 | 0.00 | 0.00 | 59 | 1017.5 |
| 20260902140013 | 86 | 225 | 1.7 | 5.2 | 0.00 | 0.00 | 0.00 | 70 | 1017.5 |
| 20260902135043 | 85 | 225 | 0.9 | 5.2 | 0.00 | 0.00 | 0.00 | 71 | 1017.5 |
| 20260902134016 | 84 | 225 | 2.6 | 5.2 | 0.00 | 0.00 | 0.00 | 72 | 1017.6 |
| 20260902124019 | 79 | 225 | 0.0 | 1.7 | 0.00 | 0.00 | 0.00 | 84 | 1017.4 |
| 20260902123020 | 78 | 135 | 0.9 | 1.7 | 0.00 | 0.00 | 0.00 | 87 | 1017.5 |
| 20260902121019 | 75 | 158 | 0.0 | 0.0 | 0.00 | 0.00 | 0.00 | 98 | 1017.3 |
| 20260902112013 | 70 | 158 | 0.0 | 0.0 | 0.00 | 0.00 | 0.00 | 100 | 1016.9 |
| 20260902095019 | 70 | 225 | 0.0 | 0.0 | 0.00 | 0.00 | 0.00 | 100 | 1016.5 |
| 20260902094010 | 71 | 225 | 0.0 | 0.0 | 0.00 | 0.00 | 0.00 | 100 | 1016.5 |
| 20260902092014 | 71 | 225 | 0.0 | 0.0 | 0.00 | 0.00 | 0.00 | 100 | 1016.5 |
| 20260902090014 | 72 | 225 | 0.0 | 0.0 | 0.00 | 0.00 | 0.00 | 100 | 1016.4 |
| 20260902084010 | 72 | 225 | 0.0 | 0.0 | 0.00 | 0.00 | 0.00 | 95 | 1016.3 |
| 20260902082017 | 74 | 225 | 0.0 | 0.0 | 0.00 | 0.00 | 0.00 | 93 | 1016.3 |
| 20260902080018 | 74 | 225 | 0.0 | 0.0 | 0.00 | 0.00 | 0.00 | 92 | 1016.3 |
| 20260902075021 | 75 | 225 | 0.0 | 0.0 | 0.00 | 0.00 | 0.00 | 91 | 1016.3 |
| 20260902065016 | 76 | 225 | 0.9 | 2.6 | 0.00 | 0.00 | 0.00 | 88 | 1016.3 |
| 20260902063015 | 76 | 248 | 0.0 | 2.6 | 0.00 | 0.00 | 0.00 | 88 | 1016.5 |
| 20260902061014 | 77 | 225 | 0.9 | 2.6 | 0.00 | 0.00 | 0.00 | 88 | 1016.4 |
| 20260902052011 | 78 | 225 | 1.7 | 2.6 | 0.00 | 0.00 | 0.00 | 85 | 1016.2 |
| 20260902041016 | 78 | 225 | 0.9 | 4.3 | 0.00 | 0.00 | 0.00 | 85 | 1015.9 |
| 20260902035020 | 78 | 225 | 1.7 | 2.6 | 0.00 | 0.00 | 0.00 | 85 | 1016.0 |
| 20260902034019 | 78 | 225 | 0.9 | 2.6 | 0.00 | 0.00 | 0.00 | 84 | 1016.0 |
| 20260902025010 | 79 | 225 | 0.0 | 0.0 | 0.00 | 0.00 | 0.00 | 82 | 1016.1 |
| 20260902024014 | 79 | 225 | 0.0 | 0.9 | 0.00 | 0.00 | 0.00 | 81 | 1016.2 |
| 20260902021012 | 79 | 203 | 0.0 | 0.0 | 0.00 | 0.00 | 0.00 | 81 | 1016.0 |
| 20260902015011 | 79 | 203 | 0.0 | 0.0 | 0.00 | 0.00 | 0.00 | 81 | 1016.0 |